Date,TemperatureHighF,TemperatureAvgF,TemperatureLowF,DewpointHighF,DewpointAvgF,DewpointLowF,HumidityHigh,HumidityAvg,HumidityLow,PressureMaxIn,PressureMinIn,WindSpeedMaxMPH,WindSpeedAvgMPH,GustSpeedMaxMPH,PrecipitationSumIn
2013-1-1,25.4,21.4,17.5,15.8,13.0,10.9,83,70,60,30.18,30.07,15,4,18,0.00
2013-1-2,27.7,22.7,18.8,22.2,16.7,11.7,88,78,73,30.20,30.07,17,6,17,0.00
2013-1-3,29.5,26.6,21.7,24.1,22.1,18.4,89,83,73,30.16,30.00,22,9,22,0.00
2013-1-4,33.1,28.4,25.7,24.3,22.3,20.1,87,78,68,30.15,29.90,27,12,29,0.00
2013-1-5,32.0,27.7,18.2,30.6,25.2,14.0,97,90,80,30.28,29.95,17,6,17,0.00
2013-1-6,33.9,31.7,28.2,33.0,30.1,22.6,98,94,79,30.28,29.86,16,4,16,0.13
2013-1-7,33.9,31.1,28.2,27.8,25.9,22.6,89,81,70,30.33,30.05,36,12,36,0.00
2013-1-8,34.4,30.6,27.0,31.2,27.7,24.7,94,89,82,30.23,30.08,19,7,19,0.00
2013-1-9,43.5,36.8,30.3,34.1,29.6,26.7,91,76,55,30.43,29.90,29,13,38,0.00
2013-1-10,37.5,32.5,26.1,34.8,28.8,23.0,91,86,77,30.59,30.25,16,4,16,0.00
2013-1-11,45.4,36.6,34.0,44.5,35.6,31.6,99,96,89,30.25,29.73,25,6,25,0.60
2013-1-12,53.1,41.3,36.3,43.4,35.4,29.6,98,82,43,29.97,29.78,33,6,33,0.00
2013-1-13,41.9,35.5,29.6,35.9,33.7,27.1,97,93,67,29.99,29.82,13,2,13,0.41
2013-1-14,29.4,23.4,18.0,27.1,17.7,13.6,91,79,66,30.43,29.98,16,6,16,0.06
2013-1-15,26.9,22.2,14.5,20.8,16.8,11.9,89,80,69,30.44,30.18,21,8,24,0.00
2013-1-16,32.7,27.5,21.3,27.2,23.2,17.6,88,84,76,30.18,29.72,25,10,25,0.00
2013-1-17,29.3,19.3,10.2,24.5,12.5,5.6,83,74,64,30.36,29.95,15,3,15,0.00
2013-1-18,34.1,19.6,8.2,28.6,15.2,4.4,92,83,72,30.45,29.87,29,10,29,0.00
2013-1-19,38.2,34.8,32.1,35.5,31.4,26.8,95,87,79,29.88,29.45,56,10,56,0.04
2013-1-20,33.2,18.9,12.5,31.2,12.2,4.0,93,75,57,30.19,29.44,31,8,32,0.03
2013-1-21,13.9,10.2,2.9,8.6,3.2,-4.2,86,73,55,30.17,29.95,17,7,22,0.00
2013-1-22,9.1,3.3,-1.0,-1.8,-5.4,-7.8,75,67,50,30.32,30.10,20,6,24,0.00
2013-1-23,14.3,8.7,1.6,9.7,3.5,-4.3,87,79,65,30.32,30.13,19,5,19,0.00
2013-1-24,18.5,10.4,4.6,7.1,2.8,-1.1,86,72,45,30.66,30.22,10,2,10,0.00
2013-1-25,20.3,16.5,9.2,17.5,12.5,3.2,91,84,67,30.56,30.07,17,9,17,0.00
2013-1-26,30.2,20.5,11.0,21.5,15.5,8.2,92,81,62,30.48,30.10,12,2,12,0.04
2013-1-27,27.6,23.2,9.7,26.2,19.6,7.1,96,86,73,30.51,30.20,23,9,28,0.02
2013-1-28,35.6,32.8,27.4,35.1,32.0,26.4,98,97,92,30.20,29.84,27,4,28,0.48
2013-1-29,46.0,35.5,32.4,45.7,34.9,31.2,99,97,95,30.05,29.44,16,4,16,0.69
2013-1-30,46.7,36.8,30.6,46.4,36.1,26.5,99,97,86,29.44,29.02,28,3,28,0.64
2013-1-31,30.5,21.1,16.8,26.5,14.9,11.6,86,77,64,29.87,29.14,33,9,33,0.05
2013-2-1,19.5,16.3,13.4,13.5,10.1,4.8,87,76,61,30.20,29.87,26,8,26,0.00
2013-2-2,22.0,13.1,7.1,10.4,7.8,2.5,90,79,56,30.18,30.04,17,3,19,0.03
2013-2-3,18.2,11.7,3.2,14.6,6.7,-0.4,88,80,68,30.08,29.87,15,4,15,0.00
2013-2-4,21.4,13.9,8.6,13.2,8.8,5.4,88,80,59,30.07,29.94,14,3,14,0.00
2013-2-5,23.1,14.9,3.6,20.9,11.4,-0.1,93,86,78,30.02,29.80,21,5,21,0.01
2013-2-6,26.7,18.2,7.4,22.9,13.3,4.1,91,81,70,30.33,30.02,14,4,14,0.00
2013-2-7,29.7,27.0,24.6,29.0,25.6,22.4,97,94,88,30.32,30.05,18,9,18,0.51
2013-2-8,29.2,23.6,14.6,28.5,21.1,11.7,97,90,81,30.40,30.00,18,3,18,0.25
2013-2-9,25.8,16.0,4.5,21.9,13.0,1.6,92,88,81,30.49,30.33,14,3,14,0.00
2013-2-10,34.0,26.0,16.4,32.9,23.5,14.2,96,90,82,30.33,29.68,16,7,16,0.26
2013-2-11,39.2,35.3,32.9,37.2,32.0,27.0,98,88,78,29.76,29.48,30,11,31,0.11
2013-2-12,32.8,29.4,25.6,27.0,22.9,18.8,84,77,70,30.00,29.76,23,7,23,0.00
2013-2-13,31.9,28.8,25.0,29.2,25.4,18.7,93,87,76,29.93,29.74,15,7,15,0.00
2013-2-14,34.7,31.5,28.5,33.6,30.2,25.8,98,95,90,29.78,29.63,21,4,21,0.03
2013-2-15,28.3,23.5,17.6,25.8,16.6,12.2,90,75,59,30.15,29.77,26,6,26,0.05
2013-2-16,21.7,16.5,7.8,17.9,12.0,4.1,90,82,68,30.15,30.05,7,1,7,0.04
2013-2-17,22.7,13.6,3.9,10.0,5.5,0.9,88,71,52,30.24,30.14,11,2,11,0.00
2013-2-18,35.0,25.4,13.6,32.6,20.8,7.0,92,82,73,30.24,29.59,22,12,23,0.01
2013-2-19,37.6,29.7,17.9,36.0,25.3,9.7,97,84,68,29.84,29.33,30,14,34,0.37
2013-2-20,23.8,16.8,13.1,11.9,8.6,4.7,84,70,56,30.29,29.83,25,7,25,0.00
2013-2-21,25.1,16.8,9.4,22.6,11.2,4.2,92,78,59,30.49,30.29,15,3,15,0.00
2013-2-22,29.3,26.5,22.5,28.6,24.8,19.9,97,93,87,30.38,29.88,24,9,24,0.05
2013-2-23,32.6,29.9,26.9,30.2,27.3,24.4,97,90,74,29.90,29.84,20,7,20,0.01
2013-2-24,38.6,30.5,22.0,27.6,24.7,20.3,95,80,61,30.17,29.88,12,3,12,0.05
2013-2-25,34.3,31.3,27.9,29.4,25.7,22.3,89,79,68,30.26,30.17,9,2,9,0.00
2013-2-26,36.2,32.4,22.5,32.1,28.1,20.7,95,84,77,30.23,29.72,38,6,38,0.00
2013-2-27,35.0,33.7,32.7,33.8,32.7,31.4,96,96,94,29.72,29.60,36,4,36,0.20
2013-2-28,35.7,31.7,27.8,32.7,28.8,21.9,96,89,77,30.04,29.62,25,3,25,0.18
2013-3-1,29.7,24.3,21.5,22.9,19.7,17.6,89,82,73,30.17,30.04,27,4,27,0.00
2013-3-2,24.7,22.2,17.3,20.1,17.8,12.7,88,83,78,30.16,30.10,11,3,11,0.00
2013-3-3,32.1,19.5,12.1,20.5,14.7,9.0,88,82,58,30.11,30.03,14,3,16,0.00
2013-3-4,27.4,19.7,10.8,22.4,15.5,8.2,91,84,68,30.19,30.11,13,3,13,0.00
2013-3-5,31.7,23.9,14.9,27.9,20.2,11.3,91,86,78,30.20,30.01,17,2,17,0.00
2013-3-6,41.4,34.3,31.2,31.9,29.9,27.7,92,84,69,30.25,30.03,14,2,14,0.00
2013-3-7,38.1,31.3,25.1,30.9,25.5,21.0,95,80,57,30.45,30.24,12,2,12,0.00
2013-3-8,32.5,28.6,24.3,31.1,26.4,20.6,97,91,84,30.53,30.45,8,2,8,0.00
2013-3-9,35.6,31.4,25.7,32.4,29.6,24.5,96,93,87,30.46,30.09,17,5,17,0.00
2013-3-10,44.6,37.5,34.0,41.2,34.9,32.0,94,90,83,30.11,29.84,12,1,12,0.03
2013-3-11,43.6,38.7,36.2,43.1,37.5,33.4,99,95,87,29.85,29.46,30,5,30,0.34
2013-3-12,36.5,32.5,29.4,33.6,28.3,23.7,92,85,69,29.88,29.56,23,9,23,0.04
2013-3-13,34.4,27.7,22.7,25.3,16.9,7.6,88,66,36,30.19,29.86,35,8,35,0.00
2013-3-14,38.7,29.5,22.0,26.4,19.4,15.3,80,67,41,30.26,30.03,20,4,21,0.00
2013-3-15,44.1,34.4,29.6,30.7,25.0,18.1,86,70,40,30.04,29.86,18,5,18,0.00
2013-3-16,29.6,24.8,21.1,24.0,20.3,16.3,92,83,63,30.08,29.89,12,2,12,0.12
2013-3-17,24.4,19.5,14.3,18.9,12.3,7.5,92,74,51,30.38,30.08,16,4,16,0.06
2013-3-18,33.2,27.8,20.8,30.0,23.8,14.3,97,85,68,30.31,29.55,29,11,29,0.12
2013-3-19,32.2,26.2,21.0,30.6,21.3,15.8,97,82,65,29.87,29.54,29,13,29,0.12
2013-3-20,27.9,22.5,16.3,18.5,15.3,10.7,91,74,56,29.92,29.86,20,6,21,0.00
2013-3-21,31.9,25.3,16.5,22.5,18.2,10.6,90,75,61,29.93,29.82,16,5,17,0.00
2013-3-22,34.6,29.7,24.1,27.0,22.5,17.3,80,74,69,30.06,29.93,16,4,17,0.00
2013-3-23,43.4,31.9,25.7,29.8,25.4,21.5,87,77,51,30.13,30.05,15,3,18,0.00
2013-3-24,36.6,31.1,25.3,28.5,24.8,22.1,89,78,58,30.11,29.82,14,2,14,0.00
2013-3-25,44.6,36.3,31.9,31.6,28.2,25.6,83,73,53,29.95,29.77,27,4,30,0.00
2013-3-26,47.6,37.6,32.1,31.1,28.0,22.9,87,70,43,30.10,29.95,14,4,14,0.00
2013-3-27,47.0,36.5,33.3,32.0,28.4,23.4,92,73,46,30.19,30.08,16,5,16,0.00
2013-3-28,50.4,36.8,29.8,33.5,29.5,26.4,88,75,47,30.28,30.19,12,3,12,0.00
2013-3-29,43.9,34.4,28.9,32.3,26.2,22.2,88,72,43,30.29,30.22,13,2,13,0.00
2013-3-30,40.6,33.7,24.2,34.3,28.8,20.9,88,82,71,30.25,29.90,11,2,13,0.00
2013-3-31,52.6,40.9,33.4,40.7,35.2,27.1,96,81,55,29.90,29.56,25,6,25,0.13
2013-4-1,33.3,28.6,23.1,27.5,16.9,11.1,79,62,42,30.12,29.70,36,11,37,0.00
2013-4-2,37.9,28.5,21.2,19.6,15.6,10.6,83,60,34,30.27,30.10,22,7,23,0.00
2013-4-3,42.8,31.0,20.4,31.0,17.4,11.0,84,59,33,30.44,30.27,18,5,18,0.00
2013-4-4,48.0,38.4,32.3,35.0,29.4,24.0,82,70,51,30.34,29.90,22,9,22,0.00
2013-4-5,43.6,34.5,28.0,32.8,24.4,14.8,85,67,32,30.26,30.00,20,4,21,0.00
2013-4-6,38.9,33.0,24.5,34.2,28.0,21.2,92,82,74,30.29,29.74,24,9,25,0.00
2013-4-7,49.4,41.7,38.6,46.2,35.2,30.8,94,78,67,30.08,29.51,31,7,31,0.02
2013-4-8,39.5,37.1,33.4,37.4,34.6,30.8,97,91,73,30.10,29.76,18,4,18,0.87
2013-4-9,39.4,36.8,36.0,38.9,36.1,35.3,98,97,96,30.14,29.99,8,2,10,0.48
2013-4-10,38.8,36.0,34.4,36.8,34.1,31.5,98,93,80,30.15,30.04,15,2,15,0.84
2013-4-11,37.0,33.3,30.9,31.8,28.9,26.7,95,84,72,30.14,29.82,23,4,24,0.74
2013-4-12,37.1,34.2,31.6,36.2,33.0,30.4,97,95,93,29.84,29.60,13,2,13,0.94
2013-4-13,41.0,35.7,33.1,34.4,31.0,26.1,93,83,64,29.97,29.71,23,8,23,0.00
2013-4-14,40.1,34.6,28.5,35.6,29.9,26.5,93,83,70,30.15,29.97,19,6,21,0.00
2013-4-15,54.9,42.9,36.1,54.0,39.9,31.5,98,89,83,30.03,29.84,13,4,14,0.22
2013-4-16,57.2,45.6,35.3,47.5,37.4,30.7,98,75,39,30.31,29.90,22,4,24,0.40
2013-4-17,46.0,38.2,31.6,38.1,33.2,29.2,94,83,63,30.44,30.13,21,3,21,0.24
2013-4-18,52.6,43.8,38.8,52.0,42.8,37.3,99,96,90,30.13,29.50,17,4,17,0.72
2013-4-19,50.0,42.1,34.6,49.7,37.5,22.6,99,84,61,29.67,29.28,43,16,43,0.29
2013-4-20,36.9,31.5,26.1,24.5,19.7,16.6,78,61,51,30.49,29.67,23,7,23,0.02
2013-4-21,40.9,33.0,20.9,36.3,26.6,17.8,89,77,62,30.70,30.49,23,6,23,0.00
2013-4-22,52.4,43.3,38.1,42.9,37.5,31.3,89,80,60,30.52,30.21,21,10,21,0.00
2013-4-23,49.3,44.4,35.2,46.3,41.1,32.8,97,88,74,30.22,29.81,14,3,15,0.31
2013-4-24,45.6,37.2,33.0,37.7,32.3,22.8,96,83,53,30.08,29.86,13,4,13,0.26
2013-4-25,47.2,41.1,36.1,39.3,31.6,22.9,92,70,44,30.34,30.04,20,8,24,0.05
2013-4-26,49.2,41.3,30.9,43.1,35.8,26.5,89,81,69,30.44,30.29,16,6,16,0.00
2013-4-27,56.1,49.0,44.6,49.2,44.0,41.7,90,83,72,30.31,30.13,16,6,16,0.00
2013-4-28,64.3,50.2,38.8,51.6,45.2,37.2,98,83,58,30.13,29.88,21,5,21,0.00
2013-4-29,56.2,51.0,47.8,53.3,49.7,47.3,99,95,87,29.92,29.86,11,3,11,0.04
2013-4-30,56.1,52.7,49.3,54.0,50.9,47.8,97,94,90,30.04,29.92,17,5,19,0.11
2013-5-1,67.7,59.2,52.7,62.0,55.0,50.5,94,86,71,30.22,30.03,10,4,10,0.00
2013-5-2,70.5,59.5,47.7,57.0,51.8,43.4,89,77,47,30.28,30.12,22,6,22,0.00
2013-5-3,67.2,58.2,50.3,54.6,49.2,44.3,84,72,58,30.16,30.09,18,6,19,0.00
2013-5-4,65.3,56.0,46.3,55.3,45.0,36.4,88,68,37,30.17,30.11,16,3,16,0.00
2013-5-5,68.9,55.0,42.9,52.6,44.0,37.7,91,69,37,30.17,30.07,13,3,13,0.00
2013-5-6,67.8,55.7,45.9,51.5,39.4,16.7,82,59,14,30.11,30.02,16,3,16,0.00
2013-5-7,71.9,56.3,41.4,50.7,41.1,32.5,87,60,25,30.12,30.03,14,3,14,0.00
2013-5-8,71.3,59.4,48.1,54.9,43.5,36.8,82,58,32,30.07,29.96,18,2,18,0.00
2013-5-9,66.3,56.8,47.0,54.5,48.2,43.6,91,74,53,29.99,29.91,12,2,13,0.00
2013-5-10,54.5,41.9,38.6,48.7,39.3,36.8,96,91,69,29.97,29.89,20,3,20,0.80
2013-5-11,53.6,42.4,37.9,50.7,39.3,33.6,96,89,77,29.93,29.66,26,7,26,0.19
2013-5-12,42.1,38.9,35.4,36.1,30.3,23.9,90,72,54,30.08,29.75,32,10,37,0.01
2013-5-13,53.0,42.0,30.3,41.3,28.9,22.5,88,62,35,30.16,30.07,15,4,16,0.00
2013-5-14,53.4,46.7,38.0,46.5,41.7,32.4,90,83,64,30.09,29.74,23,7,23,0.09
2013-5-15,77.2,62.6,48.0,52.3,44.9,36.3,93,58,26,29.76,29.50,25,6,25,0.00
2013-5-16,71.3,56.1,43.8,48.5,43.2,38.9,88,63,31,30.09,29.74,16,4,18,0.00
2013-5-17,56.2,51.0,42.8,45.2,42.1,36.7,96,72,55,30.25,30.08,13,3,14,0.02
2013-5-18,63.1,53.7,48.1,47.7,44.3,42.5,90,71,51,30.24,30.09,13,1,13,0.01
2013-5-19,65.9,57.2,47.8,57.8,50.9,43.2,89,80,69,30.09,29.87,10,2,10,0.00
2013-5-20,75.9,62.0,54.0,66.8,58.7,51.8,97,89,69,29.92,29.71,41,2,41,0.37
2013-5-21,65.0,60.7,55.7,63.3,58.9,54.9,99,94,88,29.79,29.68,22,3,22,0.23
2013-5-22,63.7,58.2,52.6,61.8,57.5,52.0,99,97,93,29.73,29.60,17,1,17,2.15
2013-5-23,53.0,47.6,41.8,52.5,44.5,37.7,98,89,62,30.20,29.67,14,2,15,0.16
2013-5-24,49.7,42.8,37.3,40.6,35.4,30.9,90,76,58,30.39,30.20,23,4,23,0.00
2013-5-25,53.2,45.2,35.7,43.7,38.4,33.6,94,78,52,30.46,30.33,19,5,19,0.00
2013-5-26,56.6,48.9,39.5,45.3,39.4,33.5,91,71,48,30.39,30.28,17,4,17,0.00
2013-5-27,61.6,50.2,36.3,47.4,40.8,35.0,97,72,47,30.29,30.07,17,5,17,0.00
2013-5-28,60.8,53.8,49.2,60.2,52.0,44.2,99,94,70,30.07,29.78,15,3,15,0.50
2013-5-29,79.2,63.3,57.1,66.8,60.5,55.4,99,91,60,29.95,29.76,23,4,23,0.52
2013-5-30,70.8,63.0,55.6,69.4,61.1,54.4,98,94,87,30.00,29.92,23,4,23,0.23
2013-5-31,71.6,65.4,62.9,65.1,63.0,61.3,96,92,78,29.93,29.80,15,6,15,0.00
2013-6-1,68.8,65.3,62.5,64.2,63.0,61.8,98,92,84,29.81,29.62,17,7,17,0.00
2013-6-2,65.9,58.5,46.9,63.5,52.8,40.4,98,82,64,30.00,29.55,22,7,22,0.05
2013-6-3,69.5,51.1,38.3,45.6,40.7,36.3,93,71,35,30.11,29.98,25,4,25,0.00
2013-6-4,59.0,51.1,39.6,48.3,42.5,37.2,94,74,46,30.23,30.11,12,3,13,0.00
2013-6-5,61.4,54.3,51.0,49.2,45.3,39.9,86,73,47,30.26,30.09,15,2,15,0.00
2013-6-6,64.5,56.2,49.5,48.6,45.2,39.8,89,67,49,30.10,29.96,15,2,15,0.00
2013-6-7,64.0,55.7,45.6,53.1,49.2,44.1,95,80,65,29.97,29.91,13,1,13,0.00
2013-6-8,61.8,55.7,48.5,58.1,53.3,46.9,97,92,80,30.09,29.92,8,1,8,0.19
2013-6-9,68.3,58.4,46.9,58.0,52.7,46.4,99,83,62,30.16,30.02,15,3,16,0.00
2013-6-10,60.9,58.5,56.4,59.2,55.7,50.8,97,91,77,30.02,29.78,13,1,14,0.02
2013-6-11,69.3,60.4,57.0,62.9,58.6,56.2,97,94,78,29.88,29.80,11,2,11,0.05
2013-6-12,66.7,58.8,54.0,62.5,57.5,53.3,99,95,86,29.92,29.70,10,2,10,0.00
2013-6-13,80.2,67.3,56.7,61.4,57.3,54.2,98,73,45,29.93,29.68,11,2,11,0.03
2013-6-14,66.3,58.5,49.7,56.0,49.4,45.1,89,72,49,30.09,29.93,16,4,16,0.00
2013-6-15,67.8,59.0,46.9,61.6,54.1,45.3,95,85,57,30.07,29.86,8,2,8,0.00
2013-6-16,82.3,68.9,61.3,66.6,61.0,50.6,98,80,37,29.86,29.72,25,4,25,0.14
2013-6-17,66.9,60.9,53.4,59.2,54.8,49.7,91,81,71,30.00,29.79,18,3,18,0.00
2013-6-18,67.4,58.6,48.2,53.3,46.5,37.2,94,67,39,30.12,29.98,17,2,17,0.00
2013-6-19,66.6,57.1,43.8,54.5,48.2,41.8,96,74,43,30.22,30.11,14,4,14,0.00
2013-6-20,69.8,63.9,52.4,62.9,57.8,49.2,90,80,72,30.21,30.14,13,5,13,0.00
2013-6-21,74.0,68.7,61.0,68.2,63.8,57.9,95,85,68,30.19,29.99,12,3,12,0.00
2013-6-22,75.1,69.1,60.1,69.0,64.5,58.0,93,85,76,30.04,29.93,18,4,18,0.00
2013-6-23,85.8,70.0,58.3,72.3,65.5,56.9,98,87,64,30.03,29.88,15,4,20,0.00
2013-6-24,81.3,74.0,70.2,71.8,69.4,67.4,93,86,64,29.96,29.83,12,5,15,0.00
2013-6-25,81.0,73.3,68.1,70.3,67.2,63.1,92,82,65,29.86,29.76,18,5,19,0.00
2013-6-26,78.2,71.6,63.5,72.4,67.5,62.0,97,87,76,29.81,29.73,12,3,12,0.00
2013-6-27,74.8,68.8,63.7,69.6,66.1,62.2,97,91,82,29.74,29.62,13,2,13,0.50
2013-6-28,71.2,65.4,61.9,67.8,63.4,61.0,98,93,84,29.63,29.53,8,0,8,0.24
2013-6-29,74.4,66.0,59.0,62.7,60.2,55.7,98,83,54,29.75,29.56,12,1,12,0.00
2013-6-30,77.5,67.8,57.7,60.3,52.7,36.5,91,61,26,30.00,29.74,11,1,11,0.00
2013-7-1,71.0,62.4,55.9,57.7,49.8,42.2,82,64,43,30.15,30.00,12,1,12,0.00
2013-7-2,75.1,63.9,56.0,56.8,50.6,43.1,81,64,33,30.13,30.07,11,1,12,0.00
2013-7-3,72.6,64.2,54.4,65.8,58.3,50.6,94,82,68,30.13,30.03,14,3,16,0.00
2013-7-4,72.8,69.0,62.6,67.9,65.3,61.2,97,88,76,30.09,30.03,16,4,16,0.00
2013-7-5,74.9,70.7,63.8,70.6,66.3,60.8,91,86,80,30.08,29.99,13,4,13,0.00
2013-7-6,78.8,73.1,67.1,73.0,69.0,63.6,93,87,80,30.07,29.93,12,5,13,0.00
2013-7-7,75.8,73.5,70.4,72.6,70.4,65.9,96,90,79,29.97,29.89,15,4,15,0.00
2013-7-8,75.0,72.5,70.0,72.1,70.5,68.8,98,93,84,29.96,29.90,19,5,19,0.64
2013-7-9,74.9,71.9,68.9,72.8,70.4,68.3,98,95,90,29.94,29.77,9,2,9,0.00
2013-7-10,80.5,74.4,62.4,72.6,65.1,55.2,96,74,51,29.91,29.68,22,5,24,0.00
2013-7-11,73.9,64.5,56.6,60.3,55.9,53.1,89,75,59,30.09,29.90,18,2,19,0.00
2013-7-12,72.0,62.1,52.1,60.0,55.7,50.6,96,81,53,30.21,30.09,13,3,13,0.00
2013-7-13,75.5,66.2,54.5,68.7,61.3,53.3,98,85,63,30.23,30.16,14,3,14,0.00
2013-7-14,77.0,70.2,59.8,71.6,66.4,58.6,97,88,75,30.27,30.20,10,3,10,0.00
2013-7-15,81.8,75.0,67.2,76.6,71.3,65.7,97,88,76,30.27,30.19,10,2,11,0.00
2013-7-16,83.0,78.7,72.9,78.1,75.4,70.6,97,90,80,30.25,30.14,12,2,12,0.00
2013-7-17,95.8,84.3,74.9,76.4,72.9,68.6,93,71,44,30.18,30.03,16,4,17,0.00
2013-7-18,83.5,78.0,72.4,76.6,73.8,68.5,95,87,69,30.08,29.81,17,5,17,0.11
2013-7-19,89.8,80.8,70.5,75.7,72.9,68.0,95,78,57,29.81,29.57,34,10,34,0.07
2013-7-20,85.7,70.5,60.8,69.3,61.5,51.0,96,75,43,29.95,29.67,15,3,17,0.01
2013-7-21,70.0,63.1,53.2,62.0,56.8,50.0,93,80,70,30.02,29.94,16,3,17,0.00
2013-7-22,76.4,71.0,64.6,71.8,66.7,58.7,92,86,76,29.97,29.69,9,4,13,0.00
2013-7-23,77.4,69.8,58.6,69.2,60.4,48.0,94,74,46,29.89,29.58,20,5,20,0.00
2013-7-24,69.9,60.3,49.7,55.6,50.5,46.0,88,71,53,30.07,29.88,13,3,14,0.00
2013-7-25,71.2,63.7,49.2,63.7,57.1,46.9,96,80,66,30.12,30.04,18,7,18,0.00
2013-7-26,71.7,68.0,63.4,65.7,63.2,57.6,94,85,75,30.06,29.88,17,7,17,0.33
2013-7-27,71.0,65.5,58.4,66.6,62.9,56.8,97,91,84,29.88,29.70,23,4,23,0.94
2013-7-28,64.5,58.7,53.9,58.7,54.9,51.8,97,87,73,29.92,29.75,16,6,16,0.38
2013-7-29,69.3,60.9,54.0,59.2,55.8,53.0,97,84,65,30.17,29.92,13,3,13,0.01
2013-7-30,71.0,63.3,53.5,62.8,57.6,52.1,96,82,59,30.23,30.13,11,3,12,0.00
2013-7-31,67.5,66.3,63.1,65.0,63.2,60.9,95,90,84,30.13,29.87,15,6,15,0.01
2013-8-1,75.5,65.9,58.1,65.3,60.1,56.0,95,82,59,29.90,29.82,15,3,15,0.05
2013-8-2,70.8,63.0,56.7,66.9,59.3,53.4,95,88,80,29.89,29.78,21,2,22,0.27
2013-8-3,76.1,64.0,52.7,59.4,55.6,51.6,98,76,50,30.06,29.89,17,2,17,0.00
2013-8-4,69.3,61.9,52.8,57.5,54.1,49.2,93,76,52,30.18,30.06,17,3,17,0.00
2013-8-5,69.3,63.1,51.3,60.8,56.3,49.8,95,79,61,30.11,29.95,23,6,23,0.00
2013-8-6,70.3,67.8,65.3,68.0,64.3,57.2,94,89,76,29.95,29.83,17,8,18,0.00
2013-8-7,81.8,71.9,64.1,67.9,65.2,62.0,98,81,55,29.91,29.72,33,6,35,0.18
2013-8-8,69.6,63.3,55.4,63.1,58.2,53.0,94,84,66,30.03,29.91,13,3,16,0.00
2013-8-9,78.8,65.6,53.4,64.7,56.7,51.7,95,75,50,30.01,29.87,20,4,20,0.00
2013-8-10,72.3,62.2,50.1,61.1,53.4,47.5,94,74,43,30.15,30.01,14,3,14,0.00
2013-8-11,71.6,63.1,51.4,63.7,56.9,49.5,94,81,68,30.13,30.02,12,3,13,0.00
2013-8-12,72.3,65.6,59.2,68.4,60.9,55.7,94,85,71,30.04,29.79,15,4,15,0.02
2013-8-13,66.9,58.9,51.9,60.7,49.1,44.5,95,71,49,30.07,29.85,14,3,14,0.04
2013-8-14,73.1,60.6,49.2,56.0,50.3,47.2,94,72,43,30.16,30.06,19,3,19,0.00
2013-8-15,69.1,60.3,47.6,64.5,54.2,44.6,90,81,61,30.14,30.04,17,6,19,0.00
2013-8-16,71.3,63.3,52.9,63.6,57.1,49.4,92,80,68,30.21,30.09,11,3,11,0.00
2013-8-17,73.5,65.3,52.6,67.2,60.6,51.2,97,86,73,30.28,30.18,12,5,12,0.00
2013-8-18,74.3,67.7,54.9,67.1,62.6,53.3,96,84,71,30.22,30.08,12,4,12,0.00
2013-8-19,74.0,67.5,55.9,68.6,61.6,53.9,94,82,63,30.10,29.97,17,5,18,0.00
2013-8-20,77.3,70.8,63.2,70.2,64.7,58.2,88,81,66,30.08,30.00,14,5,14,0.00
2013-8-21,78.5,73.3,67.8,71.6,67.9,63.4,91,83,72,30.07,29.89,18,7,18,0.00
2013-8-22,81.8,73.1,62.5,71.2,65.7,53.4,90,78,60,30.06,29.88,14,3,15,0.00
2013-8-23,72.3,64.3,57.0,64.5,57.3,50.1,91,78,67,30.22,30.06,18,3,19,0.01
2013-8-24,74.8,65.2,52.8,67.5,60.5,51.7,98,85,71,30.32,30.22,18,6,18,0.00
2013-8-25,82.3,72.5,64.1,71.4,66.7,60.5,92,82,67,30.26,30.00,19,9,19,0.00
2013-8-26,83.0,75.8,70.7,73.6,70.0,67.2,91,82,70,30.04,29.87,18,6,18,0.02
2013-8-27,75.8,70.7,66.7,71.5,68.8,65.2,98,94,85,29.92,29.83,10,2,11,0.75
2013-8-28,83.0,73.6,67.7,73.0,69.6,65.9,99,88,65,30.00,29.81,13,1,13,0.09
2013-8-29,77.3,71.0,62.2,72.2,67.8,61.3,98,90,77,30.07,29.95,10,2,10,0.00
2013-8-30,80.8,73.9,69.7,75.4,70.7,67.2,94,90,77,29.96,29.67,16,5,16,0.12
2013-8-31,71.8,67.8,61.7,67.4,64.9,60.5,96,91,81,29.86,29.76,14,2,14,0.01
2013-9-1,73.0,67.8,60.4,70.4,65.0,59.3,98,91,81,29.86,29.69,14,3,14,0.00
2013-9-2,71.5,62.3,56.4,69.1,56.6,50.9,95,82,68,29.89,29.69,16,4,17,0.00
2013-9-3,78.9,64.5,54.0,53.5,50.6,44.7,87,64,32,29.97,29.88,15,3,15,0.00
2013-9-4,76.2,61.7,53.6,63.7,56.2,49.9,94,83,63,30.12,29.95,15,2,15,0.00
2013-9-5,65.0,54.6,46.3,51.8,47.0,43.0,93,77,49,30.29,30.11,18,3,21,0.00
2013-9-6,69.0,59.3,45.1,64.0,54.1,43.7,96,84,64,30.28,30.02,19,7,19,0.00
2013-9-7,72.9,66.8,61.6,69.9,63.9,57.7,98,91,77,30.02,29.83,13,4,13,0.31
2013-9-8,65.8,61.8,54.4,64.9,55.5,49.5,98,80,66,30.15,29.93,18,3,18,0.00
2013-9-9,69.1,64.1,50.9,67.6,60.2,48.3,98,87,73,30.09,29.81,14,6,15,0.00
2013-9-10,88.0,76.5,69.1,71.9,69.6,67.2,96,81,51,29.88,29.78,25,7,25,0.00
2013-9-11,80.3,72.4,67.4,69.9,67.2,62.9,95,84,64,29.96,29.86,14,3,15,0.01
2013-9-12,75.6,65.7,55.4,63.4,55.8,45.4,94,72,45,29.97,29.81,21,3,21,0.00
2013-9-13,63.1,52.7,42.2,48.3,43.2,38.0,86,72,42,30.15,29.97,14,2,14,0.00
2013-9-14,66.6,53.6,38.6,53.1,44.0,33.5,92,71,48,30.19,30.05,20,5,20,0.00
2013-9-15,60.0,56.9,54.4,56.1,51.8,43.7,95,83,59,30.12,30.01,15,4,15,0.10
2013-9-16,59.0,50.6,40.5,54.3,44.1,38.6,95,80,55,30.43,30.12,14,2,14,0.00
2013-9-17,61.8,50.3,36.3,56.8,45.8,35.3,98,85,71,30.46,30.23,17,3,17,0.00
2013-9-18,67.2,59.7,44.0,62.9,55.0,42.1,95,85,72,30.24,30.00,17,4,17,0.00
2013-9-19,70.0,65.6,62.1,66.2,62.7,59.1,96,91,84,30.02,29.84,15,5,15,0.02
2013-9-20,73.0,67.9,65.9,67.9,65.7,63.6,97,93,81,29.85,29.66,19,7,20,0.24
2013-9-21,66.3,58.9,47.4,63.6,52.4,43.4,94,80,61,29.88,29.64,20,3,21,0.00
2013-9-22,57.2,48.3,41.0,43.6,41.3,39.2,94,78,55,30.14,29.88,12,1,12,0.00
2013-9-23,59.2,50.7,41.8,49.7,44.2,39.8,95,79,62,30.23,30.13,8,1,8,0.00
2013-9-24,61.3,50.3,39.3,52.8,45.7,37.7,98,85,65,30.20,30.04,14,3,15,0.00
2013-9-25,65.9,55.1,43.5,56.5,50.6,41.9,97,86,65,30.06,30.01,18,4,18,0.00
2013-9-26,68.3,56.2,45.8,58.2,51.2,44.8,98,85,57,30.17,30.04,14,2,14,0.02
2013-9-27,68.5,57.9,44.0,62.8,54.6,43.2,98,89,64,30.26,30.16,13,2,13,0.01
2013-9-28,69.4,63.5,57.9,63.4,59.9,56.5,96,88,78,30.21,29.97,20,8,20,0.00
2013-9-29,67.5,60.5,48.8,60.8,57.1,47.7,96,89,68,30.01,29.88,18,5,19,0.53
2013-9-30,63.7,55.7,46.1,59.5,52.3,45.3,98,89,70,30.03,29.91,14,4,14,0.01
2013-10-1,72.5,63.9,53.4,63.1,59.3,50.8,93,85,70,29.94,29.79,27,9,27,0.00
2013-10-2,76.1,63.7,53.1,62.1,50.5,38.2,93,67,27,30.07,29.85,18,3,20,0.00
2013-10-3,70.6,63.3,50.5,62.2,57.5,48.8,97,82,71,30.08,29.89,18,5,18,0.09
2013-10-4,62.1,59.8,58.2,61.5,58.9,57.1,98,97,95,30.07,29.90,6,0,6,0.32
2013-10-5,63.4,60.7,58.3,62.8,59.9,56.8,99,97,94,30.08,29.86,22,3,22,0.44
2013-10-6,66.2,63.2,55.7,64.7,62.3,53.7,99,97,92,29.86,29.59,23,8,23,0.98
2013-10-7,60.7,53.6,45.4,54.3,49.0,43.8,95,85,56,30.09,29.60,20,6,20,0.00
2013-10-8,63.0,52.8,39.7,57.3,48.8,38.7,97,87,73,30.29,30.09,19,5,20,0.00
2013-10-9,65.2,57.7,46.3,58.3,52.6,43.8,98,83,71,30.34,30.22,20,4,20,0.00
2013-10-10,64.4,55.2,42.4,58.6,51.9,41.3,97,89,77,30.26,30.15,13,2,13,0.00
2013-10-11,66.3,53.6,43.4,59.7,48.8,39.0,98,86,39,30.19,30.10,15,3,15,0.01
2013-10-12,68.4,60.5,43.9,62.2,55.9,42.8,98,85,76,30.12,30.00,14,4,15,0.00
2013-10-13,65.2,58.1,50.1,61.1,49.9,45.6,92,75,55,30.36,30.02,12,3,12,0.00
2013-10-14,60.9,49.9,40.6,47.0,42.9,38.2,92,78,56,30.44,30.30,17,3,18,0.00
2013-10-15,61.2,51.7,38.7,58.9,49.2,37.3,98,91,79,30.31,29.78,21,7,21,0.27
2013-10-16,60.2,55.4,50.8,59.1,52.0,47.1,96,89,82,29.86,29.74,27,10,27,0.05
2013-10-17,52.9,49.0,45.4,47.8,45.6,42.5,97,88,70,29.89,29.75,7,1,8,0.29
2013-10-18,57.4,47.8,39.1,50.3,44.2,37.8,97,88,68,29.86,29.78,20,5,22,0.09
2013-10-19,50.1,46.6,42.4,46.2,42.7,36.2,93,87,69,29.85,29.70,17,6,17,0.07
2013-10-20,53.1,45.2,35.3,48.1,40.5,33.7,98,84,67,29.88,29.76,17,6,17,0.04
2013-10-21,53.5,49.5,40.5,50.0,43.0,32.4,91,79,61,29.81,29.73,27,11,27,0.05
2013-10-22,47.6,39.9,34.4,39.0,33.7,27.3,93,79,63,29.89,29.77,29,8,29,0.01
2013-10-23,44.9,36.4,29.4,34.4,31.3,26.9,94,82,51,29.91,29.84,19,3,19,0.00
2013-10-24,48.2,37.5,31.2,39.8,33.4,29.4,95,86,66,30.15,29.90,18,4,19,0.03
2013-10-25,46.1,39.5,31.3,37.2,33.1,29.9,95,79,56,30.29,29.96,27,7,27,0.00
2013-10-26,49.9,43.4,36.1,41.0,37.8,33.1,91,81,57,29.97,29.70,27,10,29,0.10
2013-10-27,47.2,40.9,32.9,41.5,35.0,30.3,93,80,55,30.03,29.94,18,5,18,0.00
2013-10-28,45.7,39.1,29.2,37.4,31.0,25.3,89,73,55,30.50,30.01,14,2,14,0.00
2013-10-29,43.0,35.2,26.4,38.0,29.5,23.4,90,80,63,30.53,30.29,9,1,9,0.00
2013-10-30,50.5,43.4,36.5,46.0,40.2,34.2,94,89,80,30.29,29.96,8,1,9,0.00
2013-10-31,51.5,49.8,47.6,51.0,49.1,45.5,99,97,90,29.96,29.04,11,3,11,0.81
2013-11-1,56.8,49.4,44.9,56.5,47.5,44.1,99,93,85,29.65,28.94,35,10,36,0.25
2013-11-2,45.6,40.6,34.6,44.0,37.3,29.6,97,88,73,30.16,29.65,11,1,11,0.04
2013-11-3,42.3,37.8,32.2,36.0,32.7,29.6,92,82,69,30.50,30.16,19,5,19,0.00
2013-11-4,45.2,42.4,39.8,39.1,35.6,33.2,86,77,68,30.53,30.30,28,17,28,0.00
2013-11-5,49.2,47.0,44.2,46.3,44.2,38.4,95,90,80,30.33,30.14,15,4,15,0.00
2013-11-6,52.3,46.8,37.7,51.7,45.2,34.9,98,94,86,30.14,29.67,21,8,22,0.40
2013-11-7,38.6,37.1,34.6,35.0,31.5,28.8,90,80,72,30.11,29.98,19,4,19,0.00
2013-11-8,42.7,37.2,32.8,34.5,30.7,25.7,93,78,54,30.26,30.10,17,4,17,0.00
2013-11-9,48.5,44.0,40.7,42.9,39.0,34.4,89,82,77,30.18,29.71,29,12,29,0.04
2013-11-10,46.9,41.3,38.2,36.4,33.1,27.7,85,73,55,30.25,29.84,38,9,40,0.02
2013-11-11,40.3,33.8,24.9,36.6,28.1,17.5,95,80,61,30.36,30.02,26,8,31,0.11
2013-11-12,33.1,27.6,24.0,23.1,19.1,15.0,85,71,50,30.54,30.36,21,6,21,0.00
2013-11-13,41.7,32.0,21.8,29.5,23.7,18.3,89,73,48,30.53,30.03,32,13,32,0.00
2013-11-14,43.4,39.0,33.9,36.8,32.8,28.8,85,78,69,30.04,29.90,26,12,26,0.00
2013-11-15,43.6,41.2,39.8,38.8,36.0,33.2,86,82,75,30.05,29.94,12,6,15,0.04
2013-11-16,45.8,42.9,40.2,44.2,40.2,35.3,96,90,82,30.09,29.75,17,7,17,0.01
2013-11-17,51.9,47.1,45.1,50.8,46.4,44.0,99,97,89,29.77,29.06,28,9,28,0.75
2013-11-18,47.9,38.6,33.6,45.1,31.2,24.1,90,75,63,30.11,29.21,41,11,41,0.01
2013-11-19,39.2,33.9,29.9,29.5,24.9,21.0,85,69,52,30.46,30.11,15,5,19,0.00
2013-11-20,41.1,38.0,35.4,36.5,33.1,27.9,88,82,73,30.48,30.29,24,13,24,0.00
2013-11-21,43.8,41.1,37.7,40.3,37.6,33.5,93,88,77,30.31,30.20,19,4,19,0.03
2013-11-22,42.0,35.2,26.0,39.9,32.1,22.1,96,89,72,30.37,30.16,16,3,17,0.06
2013-11-23,29.7,22.3,14.1,26.4,12.8,2.0,90,68,45,30.52,30.24,26,7,26,0.00
2013-11-24,24.7,18.6,11.0,19.7,11.4,7.8,87,74,55,30.61,30.36,28,6,31,0.00
2013-11-25,31.9,28.1,24.7,29.5,23.1,16.6,95,82,66,30.36,29.99,30,17,31,0.00
2013-11-26,33.4,31.2,24.4,30.7,28.9,20.5,95,91,85,30.07,29.95,17,8,17,0.00
2013-11-27,24.3,20.4,16.2,20.5,13.3,10.2,85,74,63,30.21,29.97,18,5,18,0.03
2013-11-28,24.7,20.0,15.1,21.9,15.5,9.6,92,82,70,30.49,30.21,9,2,9,0.14
2013-11-29,31.5,22.2,12.0,26.5,18.9,9.0,94,87,74,30.69,30.49,21,5,22,0.00
2013-11-30,36.9,33.4,30.3,33.5,29.5,25.6,91,86,82,30.61,30.09,24,11,24,0.00
2013-12-1,36.7,33.9,30.8,34.2,31.2,26.5,95,90,84,30.09,30.04,13,1,13,0.00
2013-12-2,33.6,31.9,29.9,28.7,26.8,25.5,87,81,73,30.06,29.94,14,1,14,0.00
2013-12-3,33.8,30.0,23.9,31.7,27.5,21.1,97,90,79,30.01,29.95,18,2,18,0.23
2013-12-4,41.6,37.1,32.3,40.7,36.3,31.5,98,97,95,29.97,29.58,22,4,22,0.38
2013-12-5,46.1,36.4,25.7,44.0,29.8,17.4,99,77,56,30.12,29.55,30,11,30,0.00
2013-12-6,25.7,21.5,17.0,18.2,13.2,9.8,78,70,59,30.41,30.11,22,5,22,0.00
2013-12-7,23.1,18.7,12.9,13.7,9.4,6.2,79,67,54,30.65,30.41,20,6,20,0.00
2013-12-8,28.5,18.3,8.6,27.0,13.6,5.0,94,82,64,30.64,30.09,24,6,24,0.01
2013-12-9,29.7,25.8,14.4,28.7,22.0,6.1,96,85,64,30.09,29.81,38,13,38,0.17
2013-12-10,18.7,13.8,7.0,15.1,8.3,2.2,91,79,68,30.16,29.88,27,10,27,0.00
2013-12-11,18.6,13.4,5.6,11.3,6.2,1.2,86,73,54,30.42,30.16,23,7,23,0.00
2013-12-12,18.9,11.8,4.5,15.1,7.2,0.7,86,81,73,30.43,30.13,24,9,24,0.00
2013-12-13,20.6,17.2,11.2,15.3,10.0,3.8,86,73,62,30.43,30.12,14,3,14,0.00
2013-12-14,22.8,19.0,11.5,20.7,16.3,6.3,93,89,79,30.43,29.90,24,3,24,0.27
2013-12-15,23.6,18.8,9.9,19.6,15.1,6.2,93,85,68,29.98,29.73,23,5,23,0.00
2013-12-16,18.9,11.1,2.9,14.5,5.7,-0.6,90,79,60,30.22,29.98,21,4,21,0.01
2013-12-17,24.0,19.7,16.0,21.1,17.4,13.9,93,91,85,30.08,29.87,22,6,22,0.09
2013-12-18,29.4,24.4,19.9,24.0,20.7,17.8,93,86,73,30.08,29.86,29,8,29,0.00
2013-12-19,32.3,25.6,17.6,26.7,20.9,13.6,87,82,77,30.08,29.84,10,2,14,0.00
2013-12-20,31.2,29.4,25.6,30.2,27.8,23.3,96,94,85,30.01,29.81,10,2,10,0.32
2013-12-21,30.8,29.1,26.8,29.0,26.8,25.0,94,91,87,29.98,29.80,30,3,30,0.02
2013-12-22,29.5,26.0,20.9,28.1,24.2,18.6,96,93,88,30.05,29.71,20,3,20,0.38
2013-12-23,22.4,17.6,6.3,18.7,13.6,2.9,91,84,72,30.36,30.04,10,2,11,0.01
2013-12-24,17.8,6.8,-3.6,8.2,1.9,-7.0,89,80,63,30.57,30.35,22,3,22,0.00
2013-12-25,24.3,17.9,-1.6,22.5,15.9,-4.8,96,92,85,30.55,30.11,28,14,28,0.00
2013-12-26,26.5,23.0,19.1,23.3,19.5,14.5,95,86,71,30.27,30.03,18,6,18,0.15
2013-12-27,33.7,24.1,16.4,30.6,21.6,13.6,96,90,78,30.32,29.97,17,6,17,0.00
2013-12-28,35.7,33.9,31.6,32.4,31.4,29.1,94,90,85,30.07,29.83,15,5,15,0.00
2013-12-29,35.3,25.0,9.3,32.4,21.3,3.0,95,85,73,30.08,29.73,28,4,28,0.00
2013-12-30,15.9,10.3,0.6,9.4,4.1,-3.0,88,76,61,30.31,30.07,14,4,14,0.00
2013-12-31,14.6,11.1,4.7,10.1,4.6,-1.0,89,75,60,30.38,30.06,28,7,28,0.00
2014-1-1,13.5,7.8,-0.5,8.3,3.1,-4.4,87,81,72,30.50,30.38,16,3,18,0.00
2014-1-2,11.1,7.8,-0.9,8.1,3.7,-4.8,88,83,72,30.42,30.27,33,4,33,0.05